Theta_e
324 321 327 329 325 324 324 322 322 322 320 318 312 308 309 311 310 308 309 310 308 309 309 309 308 306 307 311 314 314 313 312 312 311 309 308 306 306 306 307 307 309 311 312 312 313 314 313 311 311 312 313 313 314 314 314 314 315 315 316 315 315 315 315 315 314 313 312 309 308 308 308 308 309 309 309 310 309 309 309 309 309 308 308 309
325 323 326 326 323 323 323 322 322 321 321 318 310 309 312 314 313 309 307 307 308 310 311 309 309 308 307 308 309 310 310 309 309 307 307 307 308 309 311 311 311 313 313 313 313 314 314 314 314 313 313 313 313 314 314 314 315 315 315 316 315 315 315 316 315 314 313 312 309 309 309 310 310 310 310 310 310 310 310 310 309 309 308 309 309
326 325 325 324 324 324 323 322 322 322 321 316 310 311 316 317 313 309 306 306 308 312 312 310 310 311 310 309 308 308 309 310 309 308 310 312 312 313 313 313 314 315 314 313 312 312 313 312 312 313 313 314 314 314 315 315 315 315 316 315 315 315 315 315 315 315 314 313 311 310 310 311 311 311 310 310 310 310 310 310 309 309 308 309 310
327 326 325 325 326 325 324 324 323 322 319 313 310 312 316 317 313 308 306 305 308 312 313 312 312 312 312 311 310 309 311 311 309 309 312 314 313 314 313 313 313 313 312 311 310 311 311 310 310 312 313 314 314 314 314 315 315 315 316 315 315 315 315 315 314 314 314 313 312 311 311 312 311 311 311 311 310 310 310 310 309 309 309 309 310
327 328 327 327 327 325 325 325 323 322 318 312 311 313 317 318 312 306 305 306 310 315 314 313 313 314 313 313 312 312 312 311 309 309 312 313 313 313 312 312 312 311 311 311 311 310 310 310 310 310 311 313 314 314 314 315 315 315 315 315 315 314 314 314 314 314 314 313 313 312 312 312 312 312 312 311 311 311 310 311 310 309 310 310 310
328 328 328 328 327 326 325 324 323 322 320 317 317 318 320 318 309 305 307 309 313 316 314 313 315 315 315 314 314 313 312 311 310 309 309 311 312 312 312 311 311 311 311 311 311 311 311 310 310 309 310 311 312 313 313 314 315 315 315 315 314 314 314 314 315 315 315 315 314 313 314 314 314 313 312 312 312 311 311 311 311 310 310 311 311
327 327 328 328 328 327 325 323 322 322 321 322 322 321 322 320 312 309 312 314 315 316 315 314 315 315 315 315 315 315 312 311 311 310 308 309 310 311 311 312 311 312 313 313 313 312 312 311 311 312 312 312 312 313 314 314 314 315 315 316 315 314 314 315 315 315 315 315 315 315 314 314 314 313 313 312 312 312 311 311 311 311 311 311 311
324 325 327 327 327 327 325 323 323 322 322 322 323 322 322 322 318 316 317 317 316 316 315 314 314 315 315 315 316 315 313 311 311 310 309 308 308 309 310 311 311 311 313 314 314 313 313 314 314 315 315 315 315 315 316 315 315 315 315 316 315 315 315 314 314 315 315 315 315 315 315 314 314 313 313 312 312 312 312 311 312 312 311 312 311
325 326 327 326 327 327 326 325 324 324 323 323 323 322 322 322 322 320 319 319 319 318 317 316 315 315 314 314 314 314 312 312 311 309 309 309 309 309 310 311 310 311 312 313 313 313 313 315 316 316 316 316 316 316 316 317 316 316 315 315 315 315 315 315 314 315 315 315 315 315 314 314 314 314 314 313 312 313 313 312 312 312 312 312 311
325 324 325 325 325 325 325 325 325 325 324 324 323 323 322 322 322 320 319 320 320 319 319 318 317 316 315 314 314 314 313 313 312 312 311 310 310 310 309 310 310 310 310 311 312 313 313 315 316 316 316 316 316 316 317 317 317 317 316 316 316 316 316 315 315 315 315 315 315 315 314 314 314 314 313 313 313 312 312 312 312 312 311 311 310
323 322 322 323 323 324 324 324 324 324 324 323 323 323 323 322 321 320 319 320 320 320 319 319 318 318 317 317 315 315 315 314 314 314 313 313 312 311 310 310 310 310 311 312 313 314 315 316 316 316 317 316 316 317 317 316 316 316 316 316 316 316 316 315 315 315 315 315 315 314 315 315 314 314 313 313 312 312 312 312 311 311 311 310 310
319 318 319 320 321 321 322 322 323 323 323 323 323 323 323 322 321 321 320 319 320 320 320 320 320 319 319 318 318 317 317 315 315 315 315 314 314 313 313 313 312 311 312 314 315 316 316 316 316 317 317 316 316 316 316 316 316 316 315 315 315 315 315 314 315 315 315 315 315 315 315 315 314 314 313 313 312 312 311 311 311 311 310 309 309
315 314 315 316 318 318 319 320 320 321 322 321 322 322 322 322 322 321 321 321 320 320 320 320 320 319 319 319 319 319 318 317 316 316 315 315 315 315 315 315 315 314 314 315 316 316 317 317 317 317 317 316 316 316 315 315 315 315 315 314 314 315 315 314 314 315 315 315 315 315 315 315 314 313 313 313 312 312 312 311 311 310 309 308 307
314 314 313 314 314 314 315 315 316 318 319 319 320 320 320 320 320 321 321 321 321 321 321 321 321 320 319 318 319 319 319 319 318 317 316 316 316 317 316 316 316 316 316 316 316 317 317 318 318 317 316 316 315 315 315 314 315 314 314 314 313 312 312 313 314 315 315 315 315 315 315 315 314 314 313 313 312 312 311 311 309 308 307 306 306
312 312 313 312 313 313 314 314 314 315 316 316 317 318 319 319 319 320 320 320 320 319 320 321 321 321 320 319 319 319 319 319 318 318 318 317 317 317 318 318 318 317 317 318 318 318 318 319 318 317 316 315 315 315 314 314 313 313 312 311 309 308 307 308 309 311 312 313 315 315 315 315 315 314 314 313 311 310 310 309 307 306 306 305 304
311 311 311 311 311 312 313 314 315 315 315 316 316 317 317 318 319 319 319 319 319 318 318 318 319 320 320 320 320 320 320 320 319 319 319 319 318 318 318 318 318 318 318 318 317 317 318 318 318 316 316 315 315 314 314 313 311 311 310 309 307 305 304 304 304 305 307 309 311 312 314 314 314 314 313 311 309 308 307 306 305 305 304 303 301
310 309 309 309 309 309 309 311 312 313 314 315 315 315 316 316 317 318 318 318 318 317 318 318 318 318 318 319 319 320 320 321 320 320 320 320 320 319 318 317 317 318 318 317 316 317 318 318 317 316 315 315 314 313 312 312 311 311 309 307 305 304 303 303 303 303 304 306 307 309 310 311 312 311 309 308 306 306 305 304 303 302 301 300 300
308 308 308 307 305 305 305 306 307 309 309 311 312 312 313 314 315 316 317 317 317 316 316 315 315 315 315 316 318 319 319 319 320 319 319 320 319 319 319 318 317 316 318 318 317 317 317 318 317 317 316 315 314 313 313 313 313 311 308 305 303 303 303 303 303 303 303 304 305 306 307 308 308 307 306 305 304 304 303 302 301 300 300 299 299
306 306 304 302 301 300 301 302 303 304 305 307 308 309 309 310 311 312 312 313 313 314 314 314 314 315 315 316 317 318 319 318 318 318 317 318 318 318 318 318 318 317 317 317 317 317 317 317 317 317 316 315 314 312 312 313 313 309 304 303 303 303 303 303 303 302 302 303 303 304 304 304 304 304 303 302 302 301 300 300 300 300 299 299 299
301 301 300 299 299 299 300 300 300 300 301 302 303 304 304 304 304 305 306 307 308 309 311 312 313 314 314 315 316 317 318 318 317 316 316 316 317 317 317 317 317 317 316 316 317 316 315 315 315 315 315 315 314 313 313 315 314 308 302 302 303 303 303 303 302 303 303 303 303 303 303 302 302 301 301 301 300 300 300 300 300 300 300 299 299
297 298 298 298 299 299 300 300 300 300 300 299 299 300 300 300 300 300 301 301 303 304 305 306 308 310 311 312 313 313 314 315 315 315 315 315 315 315 316 316 316 316 316 316 317 317 315 315 315 315 315 315 314 313 314 314 311 305 302 303 303 303 303 303 303 303 304 304 304 304 303 302 300 300 300 300 300 300 300 300 300 300 299 298 298
297 298 298 298 299 299 299 299 299 300 299 299 299 299 298 298 299 299 299 299 300 300 301 302 303 304 306 308 310 311 311 311 312 312 313 313 312 313 314 315 315 315 316 316 316 316 316 316 315 315 315 314 313 313 312 309 307 306 305 304 302 302 302 303 304 305 306 307 306 305 303 301 300 301 301 301 300 300 300 300 300 299 298 297 297
298 298 298 298 298 298 298 298 298 298 298 298 298 298 298 298 298 298 299 300 301 301 302 302 303 304 306 307 309 310 310 310 311 311 310 310 311 313 313 314 315 316 316 316 315 315 315 315 314 313 313 312 310 307 307 307 309 310 307 304 302 302 302 304 306 307 308 307 305 302 301 301 301 301 300 300 300 300 300 299 299 298 297 296 296
299 299 299 299 299 298 298 298 298 298 298 299 299 298 298 298 298 298 298 299 300 301 302 302 303 303 304 305 306 307 307 309 311 313 312 311 311 312 313 313 314 315 316 316 315 314 314 314 313 312 311 309 305 304 306 309 311 310 307 306 306 304 303 305 306 306 305 303 302 300 300 300 300 300 300 300 300 300 299 299 298 297 296 296 296
300 300 300 300 299 299 299 299 299 299 299 299 299 299 299 299 299 299 299 299 300 300 301 301 302 302 302 302 303 304 306 308 310 312 312 311 311 311 312 313 314 315 316 316 315 313 313 312 312 311 309 305 304 304 306 307 308 309 309 309 307 304 302 303 303 303 302 301 300 300 300 300 300 300 300 300 299 299 298 297 296 295 296 296 296
300 300 300 299 299 299 299 298 299 299 299 299 299 299 299 299 299 299 299 299 300 300 301 301 301 302 302 302 302 303 304 306 309 312 313 313 312 312 312 312 314 316 316 314 314 313 312 311 311 310 307 304 303 303 302 302 303 305 306 305 303 301 300 301 301 300 300 300 300 300 300 300 300 300 299 298 297 296 296 295 295 295 296 296 296
299 299 299 299 298 298 298 298 298 298 299 299 299 299 299 299 299 299 299 299 299 300 300 301 301 302 302 302 303 304 304 306 309 312 313 313 314 313 312 313 315 316 315 314 313 312 311 310 309 306 304 303 301 301 301 301 301 301 301 300 300 299 299 300 300 300 300 300 300 299 299 299 299 298 296 295 295 295 295 295 295 295 295 295 295
299 298 298 297 297 297 298 298 298 298 298 298 298 298 299 298 299 299 298 298 298 299 299 300 300 301 301 301 303 305 306 308 310 311 311 311 312 313 312 312 314 315 315 313 312 311 310 308 305 303 302 302 301 301 301 301 300 299 299 299 299 299 299 299 299 299 299 299 299 298 298 297 296 295 294 294 294 294 294 295 295 295 295 295 294
298 298 297 297 296 297 297 297 297 297 297 297 298 298 298 298 298 298 298 298 298 298 298 298 298 299 300 300 301 302 304 306 308 310 310 310 311 311 312 312 312 314 314 313 312 311 308 305 303 302 302 302 302 301 300 299 299 300 301 301 301 301 299 299 299 299 298 298 297 297 296 294 294 294 294 294 294 294 294 294 294 294 293 293 293
298 297 297 296 296 296 296 296 296 296 296 296 297 297 297 297 297 297 297 298 298 298 297 297 297 298 299 299 300 300 301 302 303 306 308 310 310 311 311 310 310 311 313 312 311 310 308 304 302 302 302 302 301 300 300 300 301 302 303 302 301 300 299 299 299 298 297 297 296 295 294 293 293 293 293 293 293 293 293 293 293 293 293 293 292
297 296 296 296 295 295 295 295 295 295 295 295 295 296 296 296 296 296 296 297 297 297 297 297 297 297 298 299 299 300 301 301 301 302 304 307 309 309 309 309 309 310 312 312 311 309 307 304 302 303 302 302 301 300 301 303 303 303 302 300 299 299 299 298 298 297 297 296 295 294 293 293 293 293 293 293 292 293 293 293 293 293 292 292 291
297 296 296 296 295 295 295 295 295 295 295 295 296 296 296 296 296 296 296 296 296 297 297 297 297 297 298 299 300 301 301 302 301 300 301 303 305 307 308 309 310 310 311 311 310 309 307 304 303 303 302 302 302 302 302 302 301 300 300 299 299 299 299 298 297 296 296 295 293 293 293 293 293 292 292 292 292 292 292 293 292 292 291 291 290
297 297 297 296 296 296 296 296 296 296 296 296 296 296 296 295 295 296 296 296 296 297 297 297 297 297 298 299 300 300 301 301 301 301 301 301 302 304 307 309 309 309 308 306 306 308 307 304 303 302 302 302 302 301 301 300 299 299 299 299 299 298 298 297 297 296 295 293 292 292 293 293 292 292 292 292 292 292 292 292 292 292 291 291 290
297 297 296 296 296 296 296 296 296 296 296 296 296 296 295 295 295 295 295 296 296 297 298 298 297 297 297 298 300 300 301 301 302 301 301 301 300 300 304 307 308 307 305 303 303 304 304 303 302 302 302 302 301 300 299 299 299 298 298 298 298 297 297 297 296 295 294 293 292 292 293 292 292 291 291 291 292 292 292 292 292 292 291 290 289
297 296 296 295 295 295 296 296 295 295 295 295 295 295 294 294 294 294 295 295 295 296 298 298 297 297 297 298 299 300 300 301 301 301 301 301 300 299 301 305 306 306 304 303 302 302 303 303 302 302 302 301 300 299 300 300 299 298 297 297 297 296 296 296 296 295 293 292 292 292 292 292 291 291 291 291 291 292 292 292 292 292 291 290 289
297 296 295 295 296 296 296 295 295 294 294 294 294 294 294 294 294 294 294 294 294 294 296 296 297 297 297 298 299 300 300 301 301 301 301 300 300 299 299 302 304 305 304 303 302 302 302 302 302 302 301 300 299 300 300 299 298 298 297 296 296 296 296 296 295 294 292 292 292 293 293 292 291 291 290 290 291 291 292 292 291 291 290 289 289
297 296 296 296 296 296 295 295 294 293 294 294 294 294 294 294 294 294 294 294 294 294 294 295 296 296 297 298 299 300 300 301 301 300 300 300 300 300 300 300 301 303 304 303 302 302 301 301 300 300 299 299 299 299 299 298 298 298 297 297 296 296 295 295 294 293 292 292 292 293 293 292 291 290 290 290 290 291 291 291 291 290 290 289 289
296 296 296 296 296 295 294 294 293 293 293 294 294 294 294 294 294 294 294 294 294 294 295 296 296 297 298 299 299 299 300 300 300 299 300 300 300 301 302 303 303 303 304 303 302 302 301 300 299 299 299 299 299 299 299 299 298 298 297 296 296 295 295 294 293 292 292 292 292 292 291 291 290 290 290 290 291 291 290 290 289 289 290 289 289
296 296 296 296 295 294 294 294 294 293 294 294 295 294 294 294 294 295 295 295 295 296 297 297 297 298 298 299 299 299 299 299 299 299 300 301 301 301 303 304 304 303 303 302 301 301 300 299 299 299 299 299 299 299 299 299 298 297 296 296 296 295 294 293 293 293 293 292 291 291 290 290 289 289 290 290 291 290 290 289 289 289 289 289 289
296 296 296 296 295 294 294 295 294 294 294 295 295 295 295 295 295 296 296 296 296 297 297 298 298 298 298 298 299 299 298 298 299 299 300 301 301 301 302 303 302 302 301 300 300 299 299 299 299 299 299 299 299 299 299 298 297 296 296 296 295 294 293 293 293 293 293 293 292 290 290 290 289 289 290 291 291 290 290 289 289 289 290 290 289
296 296 296 296 294 294 295 295 295 295 295 295 295 295 295 296 296 296 297 297 297 297 297 298 298 298 298 298 298 298 298 298 298 299 300 301 301 300 300 301 301 301 300 299 298 298 299 299 299 299 299 299 298 298 297 297 296 296 296 295 293 293 292 293 293 293 293 293 292 290 289 289 289 289 290 290 290 290 290 289 289 290 290 290 289
296 296 296 295 294 294 295 296 296 295 295 295 295 295 296 297 297 297 297 297 297 297 297 298 298 298 298 298 298 297 297 298 298 299 300 300 300 300 299 299 300 299 299 299 299 299 299 299 299 299 299 298 297 297 296 296 296 296 295 293 292 292 292 292 293 293 293 292 291 290 290 289 289 289 289 290 290 290 290 290 290 290 290 289 290
297 296 295 294 294 295 295 296 296 296 295 295 295 295 296 297 296 297 297 297 297 297 298 297 298 298 298 297 297 297 297 298 298 298 299 299 300 299 299 299 299 298 298 298 299 299 299 298 298 298 298 297 296 296 296 296 296 295 294 293 292 292 292 292 292 293 293 292 290 290 289 289 288 288 289 290 290 290 290 290 290 290 290 290 290
296 296 295 294 294 295 295 295 295 296 295 295 295 296 296 296 296 296 297 297 297 297 297 297 297 297 297 297 297 296 296 296 297 298 298 298 299 299 299 298 298 297 297 298 298 298 298 298 297 297 297 296 296 296 296 296 296 295 293 292 292 292 292 292 292 292 292 290 289 289 289 289 288 288 289 290 290 290 290 290 289 290 290 290 290
296 295 295 294 294 295 295 295 295 295 296 296 296 296 296 296 296 296 296 296 296 296 296 296 296 296 296 296 296 296 296 295 296 296 297 297 297 297 298 298 297 297 297 298 298 298 297 297 297 297 296 296 296 296 296 295 295 294 292 292 292 292 291 291 291 290 289 289 288 288 289 288 287 288 289 290 290 290 290 289 290 290 291 291 291
296 295 295 294 294 294 295 295 294 295 295 296 296 296 296 296 296 296 295 295 295 295 295 295 296 296 296 296 295 295 295 295 295 295 295 296 296 296 297 297 297 297 296 296 296 296 296 296 297 297 296 296 295 295 295 294 294 293 292 292 292 291 289 289 288 288 288 287 288 288 288 287 287 289 289 289 289 289 290 290 290 290 291 291 291
296 295 295 295 294 294 294 294 294 293 294 295 296 296 296 296 296 295 295 295 294 294 294 294 295 295 295 295 295 295 295 295 295 295 295 295 295 296 296 296 296 296 295 295 295 295 296 296 296 296 296 295 295 294 294 293 292 292 292 291 290 289 288 287 287 287 287 287 287 287 287 287 288 288 289 289 289 290 290 290 290 290 291 291 291
296 295 295 295 295 294 294 293 293 293 293 295 296 296 296 295 295 295 295 294 293 293 293 294 294 295 295 295 295 295 295 295 295 295 295 295 295 295 296 296 296 296 296 296 296 296 295 295 295 295 295 295 294 294 293 292 292 292 291 289 288 287 287 287 287 286 286 287 288 288 288 288 288 288 289 289 290 290 290 290 290 291 291 291 290
295 294 294 295 295 295 295 293 292 292 293 294 295 296 296 295 295 295 295 294 293 293 293 294 294 295 295 295 295 295 295 295 295 295 295 295 295 295 295 295 296 296 296 295 295 295 295 295 295 295 295 294 294 293 292 291 290 290 289 288 287 287 287 286 287 287 288 289 290 290 289 289 288 288 289 290 290 290 290 290 290 291 290 290 290
295 294 293 293 295 295 295 294 293 292 293 294 295 295 295 295 295 295 294 293 292 292 293 294 294 294 294 294 295 295 295 295 295 295 295 294 294 294 294 294 294 294 294 294 294 294 294 294 294 294 294 293 292 292 291 290 288 288 288 288 288 288 288 288 289 289 290 291 291 291 290 290 290 289 289 290 290 290 290 290 290 290 290 289 289
295 294 293 293 294 295 295 295 294 293 293 294 294 294 295 295 294 294 293 292 292 293 293 294 294 294 294 294 294 294 294 294 294 294 294 294 293 293 293 293 293 293 293 293 293 293 293 293 292 292 292 292 292 291 290 288 288 289 289 290 289 290 290 290 291 291 291 291 291 291 291 290 290 290 290 290 290 290 290 290 290 290 290 289 289
Wind_Speed
18 15 16 17 16 15 15 13 9 8 7 5 6 7 6 3 1 1 2 2 4 6 5 5 5 5 8 11 13 13 12 11 11 12 13 12 12 13 15 16 17 17 15 15 17 18 18 18 17 17 17 16 16 14 12 9 6 5 6 9 11 11 8 6 7 10 9 3 2 4 4 1 1 4 4 7 10 11 10 11 12 13 11 10 11
18 17 17 16 14 13 13 11 9 8 7 6 7 8 5 2 1 2 2 4 7 7 6 5 5 6 8 10 11 12 12 12 13 13 14 14 15 17 18 18 18 17 15 16 18 18 17 16 17 18 18 16 15 13 10 8 7 6 7 8 9 8 6 6 6 7 7 3 3 6 5 2 2 5 6 5 6 8 9 9 10 10 8 7 9
18 17 15 13 12 13 11 8 8 8 7 8 9 8 4 2 1 1 2 6 8 8 6 5 7 7 6 7 9 12 13 14 14 15 17 16 16 17 17 18 18 17 15 15 16 16 14 13 14 16 16 15 14 12 8 7 7 7 7 6 6 6 4 4 5 4 4 3 4 7 5 3 1 3 6 3 3 6 6 6 5 5 5 6 8
15 14 13 13 13 12 10 7 8 9 8 9 10 7 3 2 2 2 3 6 9 9 7 7 8 6 4 6 9 12 14 13 14 17 19 17 15 15 15 17 18 16 14 13 13 14 12 11 10 12 13 12 13 13 9 9 10 9 8 6 4 4 4 5 5 4 4 4 4 4 4 2 1 2 3 1 2 4 2 2 4 5 6 7 9
11 12 13 14 14 12 10 8 8 9 9 9 9 7 4 3 4 4 6 8 10 10 8 8 9 7 5 6 8 11 12 11 12 16 19 17 16 15 14 15 15 14 12 11 10 10 11 10 10 10 12 12 13 14 11 10 10 8 8 8 6 6 6 6 6 4 4 5 5 4 4 2 2 1 1 2 2 1 3 6 7 8 8 9 11
11 10 12 14 15 14 12 9 8 8 8 8 8 6 4 4 6 7 8 9 10 9 8 9 11 10 7 7 7 8 9 9 10 14 17 17 16 15 14 14 13 12 10 10 9 9 8 9 9 9 11 11 12 13 12 12 12 8 8 9 7 7 7 7 7 5 3 4 6 6 5 3 4 4 4 4 5 5 5 6 7 9 11 12 15
10 9 10 12 13 14 13 12 10 8 7 7 6 4 3 5 8 9 8 9 9 8 8 9 11 12 11 10 9 8 8 8 10 12 15 16 16 15 14 14 14 13 11 10 9 8 7 8 8 9 10 11 12 13 13 12 13 11 8 8 8 8 8 9 10 8 5 5 5 6 5 6 6 6 6 8 9 9 10 11 11 12 15 17 18
10 9 10 12 13 15 15 14 12 10 10 10 8 6 4 5 8 10 9 8 9 9 7 8 11 11 11 11 10 10 8 8 10 11 13 14 15 15 15 14 14 15 14 12 11 10 9 9 9 9 9 11 12 12 12 11 13 14 12 9 8 9 10 11 11 10 9 7 6 6 7 9 10 9 9 12 13 13 14 15 16 18 19 21 21
11 10 9 10 13 14 14 14 13 13 13 13 12 10 9 8 8 10 12 9 10 11 9 8 10 10 9 10 10 9 8 7 9 10 11 13 14 14 15 14 15 16 16 16 14 13 13 12 11 11 10 11 11 11 12 12 13 15 15 13 11 11 12 12 11 11 11 9 9 9 8 9 11 12 13 14 15 15 16 17 18 20 21 22 22
13 10 7 7 9 10 10 10 11 13 13 14 14 12 11 11 9 11 14 10 8 11 10 8 9 10 9 10 10 10 9 9 9 9 10 12 13 14 16 16 16 17 17 17 17 17 16 15 14 13 13 13 13 12 12 13 13 15 16 16 15 14 13 12 12 12 12 11 12 11 11 11 11 11 12 13 14 16 17 17 18 19 20 21 21
11 10 8 7 6 5 6 6 7 9 10 10 11 11 11 11 10 12 15 14 10 11 12 11 12 11 10 10 11 12 12 12 12 12 12 12 13 15 17 18 18 19 19 19 20 19 19 18 17 16 16 15 15 14 14 13 14 15 15 16 16 16 16 14 13 13 13 13 13 14 14 14 13 12 11 12 14 15 16 17 17 18 19 20 21
18 17 15 11 7 6 5 5 6 8 8 7 7 8 9 10 11 12 14 17 16 14 14 14 15 16 14 13 13 14 14 14 15 16 15 15 16 17 19 20 20 20 21 21 21 22 21 20 20 20 19 18 17 16 16 16 16 17 17 17 18 18 18 18 17 17 16 15 15 15 15 15 16 15 14 14 14 15 16 16 17 18 20 21 23
23 22 21 18 14 13 10 7 6 6 5 4 5 5 4 5 8 9 11 14 16 17 17 17 17 18 18 17 17 18 17 16 17 18 19 19 20 21 22 23 22 21 22 22 23 24 24 23 23 23 21 20 19 18 18 19 20 20 19 18 18 19 20 19 19 18 18 18 17 17 17 17 17 17 17 17 17 17 17 18 19 20 22 23 25
19 19 19 19 18 17 15 12 10 9 7 5 2 1 2 3 4 5 6 8 10 13 15 17 18 20 20 20 20 21 21 20 19 20 21 22 23 24 24 26 26 25 25 24 24 26 27 26 26 24 22 21 21 21 21 21 22 22 21 20 20 20 20 19 19 18 18 19 19 19 19 19 19 19 20 20 21 21 21 22 23 24 25 25 26
16 15 14 14 14 15 14 12 10 9 9 8 6 4 2 2 3 4 6 7 9 10 11 13 15 17 20 22 22 23 23 23 23 23 24 25 26 26 27 28 29 29 29 28 27 28 29 28 26 25 24 23 23 23 23 23 22 23 23 22 20 19 18 17 17 17 17 18 19 20 20 21 21 21 22 23 23 24 24 24 25 25 25 25 26
12 11 10 9 9 8 8 8 7 6 4 3 3 3 2 2 2 3 4 6 8 10 11 12 13 13 15 18 21 24 25 25 25 26 27 28 28 29 30 32 32 33 33 32 31 30 30 28 28 28 26 25 24 24 24 23 22 24 24 22 19 17 16 15 15 15 16 17 17 18 18 19 19 20 21 22 22 23 23 23 23 23 23 24 25
7 6 4 4 4 3 2 2 3 4 4 5 6 6 6 6 6 7 7 6 7 10 12 13 14 14 14 15 17 20 22 23 24 25 27 29 29 30 32 33 34 35 35 35 34 33 31 30 30 30 26 24 23 23 24 25 25 25 26 23 19 16 14 14 13 13 13 14 14 14 14 15 16 17 18 19 19 20 20 20 21 22 22 24 24
2 1 1 3 3 3 3 3 3 4 5 7 8 10 10 11 11 11 11 11 12 13 15 16 16 17 17 17 17 18 19 19 19 21 24 26 28 30 31 32 33 35 36 36 35 34 33 32 33 32 28 26 26 24 26 28 28 26 25 23 19 16 14 13 14 13 13 12 12 11 11 12 13 14 15 16 17 18 18 18 19 20 21 22 22
4 5 6 6 6 6 6 6 7 7 8 10 11 12 12 13 14 14 15 16 16 16 17 17 18 18 19 19 20 20 20 19 18 19 20 22 24 26 27 29 31 33 34 35 35 35 34 33 33 33 32 33 33 30 29 30 27 24 23 21 18 15 15 15 14 13 13 12 10 9 9 10 12 13 14 14 14 15 16 17 18 19 20 20 20
7 8 9 10 11 11 11 11 11 11 12 13 14 15 16 17 18 18 18 19 19 20 19 19 19 19 19 21 22 23 23 22 21 21 21 21 22 23 24 25 27 29 31 32 34 36 36 37 37 36 35 37 35 30 28 29 26 23 22 19 17 16 16 15 14 12 11 10 9 10 11 12 14 13 13 13 13 14 16 17 17 17 18 17 18
9 10 11 12 13 14 14 15 16 16 17 17 18 19 20 21 22 22 22 22 22 22 23 23 24 23 22 23 24 26 26 25 25 24 24 24 24 24 24 25 25 27 28 30 33 36 37 39 40 38 36 36 32 27 26 27 26 24 21 18 16 16 15 14 12 11 11 11 11 13 14 15 15 14 13 14 14 14 14 14 14 15 15 15 16
10 11 13 14 14 15 16 17 18 19 20 21 22 23 23 23 23 23 23 23 23 23 23 24 25 25 24 24 25 28 28 27 26 27 27 28 27 25 24 24 24 25 26 28 31 34 36 36 35 32 31 30 26 24 25 25 25 24 20 17 16 15 14 13 13 12 13 13 14 14 13 13 14 14 13 13 12 12 12 12 14 15 15 16 18
11 13 14 14 15 16 17 18 18 19 20 21 22 24 25 25 25 24 23 23 22 22 21 21 22 24 24 24 25 27 28 26 25 26 27 28 26 23 23 23 23 24 26 27 29 31 32 30 26 24 24 23 20 20 22 24 25 23 20 17 15 14 13 14 14 14 14 14 14 12 11 11 12 13 12 11 10 12 12 14 16 18 18 19 21
12 14 15 16 16 16 17 17 17 18 18 19 20 22 23 24 25 24 24 23 23 22 21 19 20 22 23 24 25 26 28 28 26 25 25 26 25 23 22 23 24 24 24 26 27 28 27 25 23 24 23 21 19 20 23 24 23 21 19 17 15 14 14 14 15 15 15 14 13 12 11 12 13 13 13 13 13 15 16 18 20 22 21 21 22
11 13 16 17 18 18 18 18 17 17 18 18 19 20 21 20 20 19 19 20 21 21 20 19 19 20 22 23 23 24 27 28 28 29 27 26 26 26 25 24 23 24 24 25 26 26 24 23 24 25 24 22 22 23 23 23 21 20 19 17 15 14 15 15 14 14 14 13 12 12 12 13 13 14 15 16 17 19 20 21 21 21 21 21 22
14 16 18 19 20 20 20 19 19 18 18 18 18 17 17 16 16 16 17 18 19 20 20 20 20 20 21 22 22 23 25 25 26 30 32 30 28 28 27 24 22 22 23 24 25 25 24 24 24 25 27 26 24 22 21 20 20 20 19 17 16 16 15 15 14 14 14 13 12 13 14 14 14 15 16 17 19 20 20 20 19 19 20 21 22
17 18 19 20 20 20 18 18 17 17 17 16 15 15 14 15 15 16 17 19 20 21 22 23 22 21 21 21 19 19 21 22 24 28 31 30 28 27 25 24 24 24 24 25 26 26 25 24 25 26 27 25 23 22 22 21 20 20 19 18 16 15 13 13 13 13 13 14 14 15 15 15 14 14 15 16 17 18 18 18 18 19 21 23 24
18 19 20 20 18 17 16 15 16 16 15 15 15 15 16 16 16 17 17 19 21 23 25 26 27 25 25 23 20 15 14 16 22 28 32 30 27 26 25 24 25 27 28 27 28 28 26 26 28 29 27 26 26 25 24 23 22 20 18 16 13 11 11 12 13 14 14 15 15 14 14 13 12 11 12 13 14 15 15 16 18 19 21 23 23
18 20 21 20 16 14 15 15 15 15 16 16 17 17 17 18 19 20 19 18 19 21 23 26 28 28 29 28 24 20 17 16 18 25 30 30 27 24 23 23 24 26 30 31 31 31 31 32 33 32 31 30 29 27 26 24 22 19 15 12 9 10 12 14 15 15 14 13 12 11 11 9 9 9 9 9 11 12 14 15 16 17 18 18 18
20 21 21 19 16 14 15 16 16 17 18 19 19 19 19 18 19 20 21 21 20 20 22 24 25 26 28 29 26 23 21 20 19 19 21 24 25 23 20 19 19 23 29 34 35 34 35 37 36 34 33 31 30 30 28 22 17 14 12 12 12 14 15 16 15 13 11 10 10 10 9 7 6 6 6 8 10 13 15 15 15 15 16 17 17
20 20 18 16 14 14 14 15 16 17 18 19 20 21 22 23 22 21 21 21 20 19 20 22 22 21 22 25 25 21 18 20 20 19 18 19 21 23 21 19 19 23 29 34 37 39 41 41 39 36 35 35 33 30 24 17 14 14 15 15 17 18 17 15 13 10 10 10 10 8 6 5 4 4 7 9 10 12 14 14 15 16 17 17 15
18 17 16 16 15 14 14 16 17 19 20 21 22 24 25 27 26 24 22 20 18 17 18 20 21 18 16 18 20 17 15 18 20 19 19 17 16 17 20 20 22 28 33 36 40 42 43 43 40 36 34 33 30 25 20 17 17 18 18 19 20 18 16 13 11 9 10 9 7 5 4 3 3 5 7 8 10 11 12 13 15 17 17 15 14
18 18 17 17 17 17 17 18 19 21 22 23 25 25 26 28 28 25 23 20 17 17 17 18 18 17 14 14 13 13 15 17 18 17 18 17 15 15 18 20 25 32 38 40 41 45 47 44 39 33 29 26 23 21 21 21 20 19 20 20 20 18 16 13 11 10 8 6 4 3 3 2 3 5 6 8 9 10 12 14 16 17 17 17 16
19 18 17 17 17 17 17 19 21 23 24 24 25 25 24 24 24 23 23 22 19 17 16 15 14 14 14 13 10 8 11 14 15 16 18 18 16 16 17 20 25 32 37 37 34 37 41 38 33 29 26 23 21 22 23 21 19 18 18 18 18 18 16 14 11 8 5 3 3 3 3 3 3 5 6 8 9 10 12 14 15 16 18 18 15
18 17 15 16 16 16 18 21 22 23 22 21 21 21 21 21 21 21 22 24 24 22 20 17 14 14 14 13 11 9 10 14 18 19 19 18 17 17 17 20 24 28 31 30 25 25 28 29 28 26 24 23 23 23 22 20 17 17 17 16 16 17 15 13 10 6 3 3 4 4 4 3 3 5 6 9 10 11 12 14 15 17 19 15 11
16 15 16 17 17 18 19 21 20 19 18 17 16 16 16 17 18 20 21 22 23 23 22 20 16 14 13 14 13 12 12 14 17 17 15 15 17 18 18 20 22 25 29 29 26 25 27 28 28 26 25 24 23 21 21 20 18 17 16 16 16 16 14 11 8 5 4 5 6 5 5 4 4 5 8 11 12 12 13 16 17 17 14 11 10
14 16 17 17 18 19 19 20 18 17 16 15 12 11 12 12 14 16 18 19 19 18 18 18 15 13 12 13 14 14 13 12 12 12 12 13 16 19 22 21 21 24 28 29 27 26 25 25 24 23 23 23 21 21 23 22 19 17 16 15 15 15 13 10 8 6 5 6 7 6 5 4 4 6 9 11 12 13 15 16 15 11 8 10 11
16 18 18 16 17 18 17 17 17 16 16 15 12 12 12 12 12 13 14 14 14 15 16 16 13 12 12 13 13 13 12 10 8 9 10 13 15 19 24 25 24 24 27 28 28 26 24 22 21 21 22 20 19 21 23 20 17 16 17 17 16 14 12 10 8 7 6 7 7 5 4 3 4 7 9 10 9 11 12 10 7 7 8 9 11
17 19 19 17 16 16 15 15 16 16 16 15 14 15 15 14 14 14 14 13 13 15 15 14 12 11 12 12 12 11 10 9 9 9 9 12 14 17 22 25 26 26 27 27 27 26 25 23 21 21 21 20 19 19 20 18 16 17 19 18 17 14 11 10 9 8 7 6 4 2 2 3 4 7 9 8 8 10 10 7 6 7 9 10 11
17 19 20 17 14 14 14 15 16 18 17 16 15 15 15 14 13 14 14 14 15 14 13 11 10 11 11 11 11 10 8 7 9 9 9 10 13 14 15 18 21 24 25 24 24 26 29 27 24 21 19 19 18 18 17 16 16 17 17 16 15 13 11 11 10 9 7 5 3 2 3 3 5 7 8 7 8 10 11 8 7 8 10 12 13
16 19 19 14 11 12 15 16 17 17 17 16 15 13 13 13 12 11 13 14 14 13 10 9 9 9 8 6 4 3 2 4 7 10 10 11 11 12 14 14 16 20 23 25 27 29 29 26 22 20 18 18 18 18 18 18 18 17 15 14 14 13 12 12 11 9 8 6 5 4 3 4 5 7 7 6 7 9 9 7 8 10 11 13 12
17 19 16 10 9 11 15 16 16 16 15 14 11 10 12 13 11 10 11 12 11 11 10 8 6 6 7 7 6 5 3 2 7 9 9 9 9 11 14 15 16 19 22 24 25 24 22 20 19 19 18 18 18 19 19 19 18 17 15 15 15 15 13 12 11 10 8 7 6 5 4 4 6 7 6 6 6 6 6 7 8 9 11 11 11
17 19 14 7 7 11 13 14 15 16 15 12 9 8 10 11 10 10 11 11 10 9 8 6 5 5 5 6 7 6 5 0 5 8 9 10 10 10 13 16 18 18 19 20 19 18 18 19 20 19 19 21 22 21 19 17 16 15 15 16 16 15 13 12 11 10 7 6 6 6 5 5 6 7 6 4 3 5 7 6 7 9 9 11 11
18 20 12 4 6 10 11 11 13 14 14 12 9 8 9 9 9 10 11 11 11 10 7 5 5 5 4 3 3 3 3 1 3 5 7 9 10 10 13 18 21 21 19 18 18 18 19 21 21 21 21 23 23 20 17 15 14 14 14 15 15 15 14 14 13 11 9 8 7 6 5 5 6 6 4 2 4 6 6 7 8 8 9 11 11
18 21 13 4 5 9 9 8 9 11 11 10 10 9 9 10 10 11 11 11 11 10 7 4 3 2 1 1 1 2 2 4 5 4 4 5 7 8 13 18 22 22 21 19 19 20 21 21 20 19 19 19 18 16 15 14 14 14 15 14 14 13 13 12 12 11 9 8 7 6 5 6 5 4 2 1 4 5 6 8 9 9 10 11 11
18 22 17 7 4 6 7 7 7 7 8 8 9 8 8 10 10 10 10 9 8 7 6 3 2 2 1 1 2 3 6 9 9 9 8 8 8 10 13 16 18 19 19 21 22 22 21 20 18 18 18 18 17 15 14 13 14 14 13 12 11 10 9 8 8 8 7 6 5 5 5 4 3 3 1 2 5 6 7 8 8 9 9 10 11
16 20 19 11 5 4 5 7 8 6 4 5 7 6 7 9 9 8 7 7 6 7 7 6 3 3 3 4 6 7 10 13 14 15 15 14 14 15 17 20 22 22 22 21 21 20 18 17 17 18 18 17 15 14 14 14 13 11 9 9 8 7 5 5 5 5 4 3 2 2 3 2 2 3 2 4 7 7 7 7 7 7 7 8 11
15 18 17 14 11 8 6 7 9 6 3 3 4 6 8 7 6 5 7 9 10 10 9 7 6 6 6 8 9 10 13 15 16 17 17 17 17 18 19 20 21 22 20 19 17 16 14 14 15 16 15 13 12 12 13 12 10 8 7 6 5 4 3 3 4 4 4 4 3 2 2 2 2 3 4 6 8 7 7 7 6 6 7 10 12
14 17 16 15 15 13 9 7 8 7 6 4 4 5 5 3 3 4 7 10 11 10 8 7 7 8 8 10 12 13 14 15 15 16 17 17 17 17 17 17 17 17 16 16 15 13 12 12 12 12 12 10 8 9 9 8 7 7 6 5 4 4 5 6 7 7 7 7 6 6 6 7 7 6 6 6 8 8 8 7 6 6 10 12 10
14 16 15 14 15 14 11 9 9 7 6 5 5 5 5 3 3 4 7 9 9 8 7 8 10 11 11 12 13 13 13 12 12 12 14 15 15 15 14 14 13 12 12 12 11 10 10 10 9 10 10 8 6 7 7 6 6 6 7 6 7 8 8 9 9 9 9 7 6 7 7 8 9 9 7 7 8 8 8 7 5 7 11 12 8
13 14 13 13 14 13 12 12 12 10 7 6 5 5 4 4 3 4 8 9 9 8 7 9 11 11 11 11 11 10 10 10 9 9 11 13 14 13 12 11 11 10 9 8 8 8 8 6 6 7 8 7 6 7 8 6 6 8 8 8 9 9 9 9 9 8 7 6 6 6 7 8 9 10 9 9 9 9 7 6 5 7 12 15 11
Wind_Direction
183 186 188 191 190 188 191 191 183 176 164 161 175 175 175 169 125 279 254 189 163 160 154 152 154 150 153 164 172 177 180 175 168 164 161 157 149 139 136 140 144 146 147 145 141 135 127 125 134 147 155 158 158 157 153 144 129 127 143 139 138 148 151 137 145 157 160 165 159 137 131 149 41 23 22 27 25 26 36 39 31 21 11 5 7
180 184 186 188 190 190 191 187 178 174 170 171 170 163 155 135 127 273 236 171 156 150 151 150 144 142 146 156 168 174 167 157 154 150 144 140 137 136 137 138 139 140 142 143 142 140 136 132 132 139 146 149 147 147 149 141 129 130 143 146 147 152 147 129 125 140 146 140 157 150 122 64 358 5 4 12 26 24 23 27 25 14 3 350 348
171 176 181 182 184 186 184 177 172 173 177 179 172 164 154 140 178 242 198 172 162 155 157 150 139 140 141 147 158 160 154 153 154 145 138 139 139 141 145 144 142 145 147 148 149 149 146 141 139 143 147 144 142 146 145 135 138 148 156 156 145 143 163 163 137 125 132 136 164 165 130 70 33 23 23 25 27 22 18 14 6 345 317 307 318
161 165 170 172 177 181 180 172 170 177 185 181 174 174 171 163 191 198 174 173 164 157 158 147 144 154 155 146 150 154 158 164 161 150 146 149 152 155 157 155 156 160 160 157 157 157 156 151 147 153 160 158 156 162 160 145 148 155 167 177 157 150 180 180 154 134 136 148 157 153 130 119 177 354 1 347 14 36 79 248 274 266 266 285 306
157 156 160 167 173 175 179 176 169 175 188 188 184 190 196 184 186 174 167 165 157 159 168 158 159 180 184 163 160 163 170 176 166 159 159 160 164 168 168 168 170 170 170 171 169 169 170 169 166 168 175 176 173 177 179 172 168 164 168 179 174 169 179 171 156 146 144 169 180 155 146 182 242 283 257 227 286 298 209 227 241 239 252 281 301
158 155 159 165 170 174 176 177 174 174 185 191 191 196 192 172 171 169 167 161 155 170 190 178 175 187 189 186 191 187 185 183 170 168 173 176 179 182 180 179 178 176 180 189 192 192 192 190 187 185 189 191 191 196 199 189 184 183 181 181 174 172 182 179 170 165 149 174 188 174 173 225 250 233 229 242 259 261 248 243 243 244 258 276 288
157 162 166 164 169 175 173 174 180 181 177 179 186 202 198 169 170 169 161 156 164 191 214 199 191 193 191 196 214 218 209 197 188 183 183 186 192 195 194 191 186 184 190 202 211 212 213 213 209 203 201 202 203 209 214 202 192 192 191 185 181 182 189 190 191 198 200 187 193 200 214 249 261 248 247 259 266 267 262 258 258 264 270 277 285
166 177 172 158 159 168 170 174 185 190 185 187 196 206 208 195 184 173 166 174 191 210 225 211 203 206 204 206 219 233 236 222 213 210 204 201 203 205 205 203 198 196 198 207 219 223 221 225 230 228 218 211 210 213 214 207 200 201 202 198 197 200 202 201 202 207 206 200 207 227 247 261 263 253 248 254 261 264 263 261 263 269 274 279 287
156 171 173 153 152 164 171 177 190 198 199 204 209 206 202 210 207 187 184 199 214 222 236 226 211 214 217 216 226 241 249 243 233 229 224 220 221 220 217 214 210 209 210 213 222 231 234 236 239 242 235 226 224 221 215 212 208 208 213 217 220 222 220 219 217 213 214 223 227 233 250 260 259 257 256 256 253 249 253 258 264 271 276 282 289
147 152 153 135 138 160 175 182 192 199 202 208 212 210 209 213 211 193 192 206 217 220 231 231 215 219 224 223 231 244 252 256 253 247 239 233 231 230 229 226 222 224 226 227 230 236 242 244 242 241 239 234 232 230 226 224 221 217 220 225 228 231 232 234 236 234 237 241 237 238 249 257 258 257 252 247 243 242 251 261 268 275 280 284 287
128 119 106 93 99 131 158 172 183 189 194 204 210 214 214 213 207 194 195 205 209 208 215 218 215 221 228 226 229 238 247 253 256 256 253 247 242 239 237 234 233 235 237 238 240 241 241 243 242 238 237 236 236 237 239 240 238 234 232 233 233 233 237 243 248 251 252 247 243 249 258 263 267 267 258 250 247 250 259 267 274 279 283 287 290
100 97 91 87 81 84 112 152 171 179 189 200 207 211 212 214 216 210 206 210 213 215 219 223 221 220 222 222 226 231 237 241 245 248 248 246 248 250 248 243 242 242 243 243 243 242 241 242 242 241 240 238 236 240 244 246 245 242 240 242 242 240 243 247 251 254 256 254 252 258 263 265 266 269 268 265 262 262 266 271 276 281 285 291 295
105 103 101 101 97 91 94 110 134 153 171 190 202 208 214 224 229 227 222 222 226 230 233 235 234 231 228 227 228 229 229 232 238 240 239 239 244 250 252 252 252 253 252 250 247 244 244 244 243 242 242 240 238 241 247 248 245 242 242 244 245 245 245 246 247 249 251 252 252 256 261 264 266 268 269 269 269 269 271 274 279 283 287 292 296
114 112 111 108 103 100 97 97 104 109 104 104 111 34 359 332 296 273 265 262 255 249 247 246 244 241 240 239 237 234 231 233 238 238 236 237 239 243 249 253 256 258 257 255 253 250 248 247 247 242 240 243 245 246 250 249 244 240 241 243 244 245 247 246 246 246 247 250 252 256 260 263 266 269 270 270 271 272 275 280 284 287 292 297 301
116 115 112 107 103 104 105 102 103 106 105 108 112 101 62 342 330 319 309 304 291 275 266 261 256 251 249 249 247 244 239 238 240 241 241 240 238 238 243 248 250 253 253 250 247 246 244 244 242 238 242 251 254 253 252 249 241 237 238 241 244 246 248 249 247 247 249 251 253 255 258 262 265 268 270 271 272 275 279 284 287 291 296 301 304
113 115 112 103 97 102 112 118 120 120 125 141 153 159 205 241 250 270 293 305 300 291 283 275 270 264 259 256 254 253 249 246 246 246 246 246 245 245 247 250 251 251 251 251 251 251 248 243 237 239 248 255 255 252 249 243 238 238 238 240 244 245 243 243 243 244 245 247 249 251 255 259 262 265 267 270 273 276 281 285 290 295 300 303 305
114 115 109 83 60 56 83 132 154 160 180 206 216 223 237 242 244 252 259 268 282 287 288 287 285 279 273 269 265 261 258 256 253 252 251 251 252 253 254 255 254 253 253 255 257 256 251 244 240 243 248 250 248 247 247 246 246 245 242 241 241 237 232 235 239 241 243 245 249 252 255 258 261 263 265 269 274 280 286 290 294 299 303 305 306
123 135 336 352 348 338 328 300 266 243 238 235 232 235 240 244 248 255 260 264 270 274 278 282 285 284 282 280 277 274 271 267 262 257 255 254 255 256 257 258 256 253 251 253 254 253 248 244 243 244 246 247 249 252 256 255 251 244 238 235 234 232 232 236 240 242 245 249 253 256 260 265 267 268 272 278 284 289 294 295 298 302 305 308 310
316 313 312 318 315 305 298 290 280 273 270 267 264 263 262 260 259 259 261 264 267 268 269 272 275 280 281 281 281 280 277 273 269 265 263 260 257 256 257 258 257 252 250 250 251 249 247 244 243 244 247 253 259 261 256 249 242 235 230 226 225 228 233 236 239 243 247 248 251 258 267 272 275 279 283 287 292 295 296 298 301 305 308 310 311
311 308 304 303 301 298 296 293 287 281 275 273 273 273 273 273 272 269 267 266 265 263 263 264 266 269 272 274 276 278 277 275 274 274 274 270 264 259 256 257 257 255 253 252 250 247 246 245 245 248 253 258 262 258 244 235 233 231 223 218 219 225 231 233 235 238 241 242 249 259 268 275 279 283 285 286 289 292 293 297 301 303 304 305 302
296 290 286 285 284 285 286 285 283 281 279 278 276 274 274 274 274 273 272 271 270 268 266 265 264 265 267 269 271 273 273 273 275 275 275 274 270 263 258 257 258 258 256 255 253 251 250 249 250 254 256 254 249 242 233 229 230 226 219 217 221 224 227 230 229 230 235 242 251 260 270 278 280 279 277 277 280 284 287 290 292 294 297 298 295
296 291 288 285 284 283 283 281 280 281 281 281 280 279 277 276 275 274 273 271 271 271 271 271 270 269 268 267 268 270 271 272 274 273 271 272 271 265 259 257 257 257 256 254 255 255 254 254 255 256 253 242 230 226 228 224 218 216 216 218 220 219 222 228 231 233 236 241 251 263 274 278 275 270 268 270 272 276 280 283 287 293 298 298 297
302 297 293 288 286 284 282 281 282 282 281 280 279 278 277 275 274 273 272 271 271 271 273 274 274 273 270 268 268 270 272 272 272 270 269 270 268 261 257 258 259 258 256 256 257 256 254 253 248 237 226 216 207 210 216 210 206 210 216 218 219 220 224 231 236 238 240 246 256 267 268 261 258 261 265 268 272 276 282 287 292 295 295 292 291
310 303 299 295 293 291 287 285 286 286 287 286 283 280 279 278 278 277 275 273 272 273 275 277 277 277 277 275 272 272 274 273 269 264 265 268 267 262 258 260 261 260 257 257 258 256 250 242 226 209 200 197 196 200 203 200 200 207 213 216 219 224 229 234 239 242 246 252 255 254 246 240 241 246 252 258 265 272 277 281 284 286 286 286 286
296 296 296 295 296 295 293 292 291 289 289 290 290 291 292 293 293 292 288 282 277 276 276 277 277 277 278 279 277 273 270 271 269 265 263 266 267 265 261 258 258 257 255 255 254 250 240 228 215 203 197 196 196 197 199 199 200 204 208 213 219 227 233 237 239 242 245 246 242 237 235 235 235 240 249 257 265 271 275 278 281 283 284 286 286
286 289 292 293 296 296 294 293 290 287 287 288 288 293 298 301 303 303 300 293 283 277 275 273 272 273 273 275 278 274 270 270 270 264 258 255 257 259 257 253 251 252 253 251 247 239 229 222 215 204 197 196 196 197 200 203 205 208 211 215 221 228 234 237 239 242 243 241 238 234 231 234 242 250 259 267 272 276 279 282 284 286 287 288 289
287 290 292 293 296 298 299 299 296 292 291 288 284 283 284 286 288 291 294 293 285 279 278 277 276 277 276 277 282 283 280 280 275 264 254 248 245 249 252 250 244 243 244 241 236 230 224 217 208 199 195 195 195 197 200 202 205 209 212 212 215 220 227 234 237 237 238 240 241 238 237 243 251 259 267 273 277 279 281 284 286 287 289 291 292
297 299 300 299 299 300 303 303 297 291 287 283 280 280 279 279 281 282 287 292 290 286 284 282 281 282 281 281 284 286 287 288 279 265 255 248 244 245 249 247 240 239 239 233 225 220 215 205 196 191 191 193 194 195 198 199 198 199 200 201 205 212 221 227 228 228 234 240 241 241 245 250 256 263 271 276 280 283 287 291 290 289 289 290 293
310 310 309 308 306 302 298 296 295 293 291 288 285 283 280 278 276 276 276 280 285 287 287 286 285 284 282 281 283 283 280 284 284 270 255 247 244 245 243 240 239 240 239 231 221 212 205 196 190 189 191 192 192 194 195 192 189 192 198 210 224 229 226 224 225 227 231 233 234 239 248 255 261 269 278 286 294 300 305 305 301 297 297 298 300
314 311 308 306 305 301 296 297 301 302 302 304 304 302 300 295 289 283 277 270 269 275 281 284 286 284 280 279 279 280 279 280 289 290 274 257 248 242 236 238 245 245 239 229 220 212 206 197 189 187 190 191 191 191 190 190 195 208 222 230 226 219 216 217 220 222 222 225 233 243 252 262 271 285 303 313 315 315 314 313 311 311 311 309 308
322 320 315 310 306 302 299 303 309 310 312 315 317 317 317 315 311 306 298 286 276 273 277 281 282 281 279 276 273 277 284 284 283 289 291 279 261 247 241 245 251 249 241 229 219 212 206 197 188 187 191 193 192 191 194 202 214 221 220 212 205 207 211 214 215 217 220 229 238 244 251 263 284 316 326 323 319 317 317 317 318 317 317 317 318
331 334 334 330 325 322 321 322 323 323 323 322 319 317 316 313 312 312 310 303 292 282 281 281 278 276 279 278 269 266 276 284 282 281 284 287 281 266 255 251 248 242 234 225 219 214 205 194 189 190 194 195 196 198 204 207 204 203 203 200 199 205 211 212 215 222 227 230 231 234 246 267 308 323 320 319 320 321 322 322 321 320 321 321 317
332 336 337 333 330 328 327 327 325 322 319 315 311 308 306 305 307 310 311 308 298 287 284 283 279 277 284 289 278 260 260 272 280 281 279 280 284 278 262 250 245 234 218 208 207 207 201 195 194 196 198 198 197 197 199 197 191 191 197 202 203 205 207 211 220 227 226 220 216 226 241 267 306 311 315 323 326 327 325 321 319 320 317 311 306
334 338 337 333 331 327 324 321 317 312 309 305 302 302 301 301 304 309 312 312 307 299 293 287 277 273 280 291 295 275 253 254 262 273 278 277 278 278 264 248 241 230 214 203 199 197 195 194 195 196 197 197 195 195 195 193 186 185 193 201 204 203 204 210 219 223 216 209 222 237 245 263 294 309 322 331 328 322 318 314 313 312 306 304 309
337 339 339 336 333 329 324 319 314 311 309 304 301 299 298 297 299 304 308 310 309 306 304 300 288 277 276 285 294 286 259 249 252 263 274 271 264 264 259 247 238 228 216 210 205 201 199 197 194 195 199 198 197 197 194 188 183 185 191 194 193 195 200 209 217 220 219 225 229 230 235 256 290 312 325 328 321 313 308 305 303 301 301 307 331
337 338 342 338 331 327 324 321 321 325 325 319 312 306 299 296 298 301 303 305 307 307 308 306 300 288 280 283 289 286 277 269 264 263 265 262 254 250 248 245 241 230 219 212 208 208 208 202 197 196 194 189 187 188 185 181 182 188 191 188 188 194 203 210 215 220 220 213 208 210 226 261 297 318 326 325 318 310 304 297 295 297 307 333 360
339 338 337 332 330 331 331 330 334 342 343 337 333 328 320 311 306 304 305 307 312 316 318 316 310 299 290 287 287 288 286 281 269 252 241 243 249 247 244 244 244 235 223 214 210 210 205 196 189 184 177 172 176 179 180 183 189 195 196 194 193 197 204 209 216 221 209 199 201 213 239 275 309 326 328 322 312 303 296 291 294 310 341 359 359
346 343 337 332 336 341 343 342 345 350 351 350 350 348 343 338 333 330 328 329 330 330 330 328 322 310 300 292 288 293 298 290 265 240 231 236 241 239 235 235 235 230 220 213 209 203 190 180 180 179 173 172 177 181 185 194 202 201 199 199 199 202 208 214 219 216 201 200 214 231 257 294 321 327 323 316 309 305 304 305 324 357 4 357 353
346 348 342 338 343 349 352 354 356 356 351 348 351 356 357 358 358 357 355 350 342 333 328 326 322 315 313 310 303 303 303 284 256 241 234 231 230 229 229 228 224 218 212 209 205 193 178 171 174 175 171 174 182 190 200 209 205 195 195 200 205 209 211 209 210 208 202 205 223 250 277 302 320 321 315 314 322 329 333 346 11 11 0 357 355
343 348 345 345 353 0 3 6 9 7 1 359 2 7 8 6 5 3 359 349 340 334 331 330 327 326 326 317 302 294 288 263 244 240 236 228 220 218 221 222 219 213 206 194 182 174 169 169 170 171 174 180 187 193 200 198 190 189 195 202 205 207 201 196 200 206 208 217 242 260 266 294 313 312 310 317 329 330 332 348 13 14 3 357 351
348 351 351 358 13 16 14 15 16 12 8 8 11 11 11 11 6 357 351 347 344 346 352 355 348 342 340 331 301 281 256 230 232 233 231 229 221 208 201 207 218 216 201 182 172 172 174 174 174 177 179 178 176 178 181 181 183 192 198 196 194 196 194 192 199 213 228 242 250 250 261 292 304 305 310 315 314 316 330 1 20 10 356 353 355
354 354 354 9 28 21 14 16 19 15 9 8 9 5 3 4 1 352 352 357 359 2 5 7 4 6 21 41 55 60 63 218 229 226 222 223 219 203 194 200 213 212 197 183 179 178 174 170 172 174 174 172 169 169 170 172 180 193 199 192 188 191 194 198 208 224 237 242 240 244 264 289 297 301 306 307 308 331 10 29 15 353 350 4 17
355 353 353 14 33 19 12 15 20 17 9 6 7 3 360 3 8 12 16 19 19 14 12 17 29 43 53 56 51 41 33 314 220 223 224 223 216 201 192 197 203 202 192 184 179 174 169 169 170 168 167 169 170 169 169 174 188 201 203 196 193 198 205 213 222 232 239 241 244 254 269 285 292 296 301 316 5 41 42 20 350 345 3 24 27
354 352 354 21 40 22 14 15 21 19 12 11 18 20 20 28 36 33 27 22 21 24 34 52 59 58 60 58 45 24 19 97 184 204 220 224 224 219 208 201 197 194 187 178 172 169 170 170 166 162 163 169 173 176 181 192 205 212 208 203 206 215 222 228 235 243 249 254 257 261 268 281 291 294 301 355 58 62 39 9 1 12 27 31 23
354 354 358 22 45 22 9 10 18 17 15 25 41 49 49 47 39 27 21 21 23 29 42 66 83 88 86 43 20 24 66 105 134 158 180 197 209 216 210 202 196 193 186 176 169 170 171 168 164 164 168 173 178 185 192 199 206 208 206 206 214 223 228 232 238 244 248 251 255 258 268 281 287 283 279 68 83 71 46 31 30 31 30 24 17
358 356 356 4 36 16 353 347 354 354 0 23 46 62 62 49 34 23 21 21 19 19 27 48 116 164 170 99 67 73 86 101 117 130 140 152 164 173 176 174 171 168 164 158 157 160 162 162 165 171 174 176 181 190 199 204 206 207 210 215 223 228 229 227 228 230 233 239 249 259 271 276 264 240 226 87 79 70 55 43 34 27 24 17 10
0 357 357 5 16 349 319 322 331 330 340 16 35 65 83 70 51 35 26 19 16 23 34 54 96 134 131 118 117 114 113 118 126 130 132 137 146 155 157 154 148 144 143 142 144 147 152 159 171 181 183 182 185 191 197 199 201 208 218 224 224 224 222 214 209 208 209 214 234 265 273 263 232 203 154 99 88 80 64 45 31 26 23 9 358
0 357 2 10 10 358 333 332 348 10 64 73 62 87 92 75 51 33 17 12 19 34 49 71 101 122 127 130 133 133 131 132 136 137 134 132 136 143 149 151 150 149 150 150 151 152 158 168 177 184 187 190 197 203 203 202 206 217 222 214 205 200 191 177 168 155 140 126 108 91 88 96 113 130 122 108 100 88 68 48 37 28 12 356 352
357 358 7 13 11 10 9 357 1 32 77 103 113 111 96 56 42 47 22 10 19 39 65 102 124 130 136 140 140 139 138 136 136 135 134 132 133 137 141 144 147 150 152 153 155 160 169 178 187 195 204 214 223 220 208 200 196 197 191 173 150 138 135 133 130 122 116 110 100 89 88 89 87 86 94 105 107 95 72 55 47 24 2 355 1
351 356 10 16 12 14 21 17 18 47 90 113 119 119 120 118 100 53 12 11 34 64 96 127 135 135 139 140 137 134 133 132 134 136 137 133 130 130 131 134 138 143 147 152 160 170 180 190 204 214 217 218 215 203 195 186 171 161 151 135 125 124 124 121 118 113 107 101 93 87 87 84 75 69 76 95 105 96 76 61 51 22 3 3 25
354 3 17 20 16 20 28 30 35 54 88 121 129 120 112 111 94 34 20 37 64 88 116 136 139 140 140 137 131 125 117 113 118 131 137 135 131 128 127 130 133 138 147 161 176 183 187 201 220 220 210 201 194 192 191 182 160 147 140 130 124 121 117 114 112 109 100 90 85 87 88 80 66 61 71 87 96 93 81 62 47 24 8 7 22